W7KKE-3 Weather Reports


Display with metric or nautical units.
time (UTC)temp
F
wind
direction
speed
MPH
gust
MPH
rain 1hr
in
rain 24hr
in
rain mn
in
humidity
%
barometer
mb
20150904205300 67 289 9.0 15.0 0.00 0.00 0.00 69 1017.1
20150904204759 67 324 10.0 15.0 0.00 0.00 0.00 69 1017.1
20150904204259 67 327 10.0 15.0 0.00 0.00 0.00 69 1017.1
20150904203800 67 331 10.0 15.0 0.00 0.00 0.00 68 1017.1
20150904203259 68 327 10.0 15.0 0.00 0.00 0.00 68 1017.1
20150904202800 68 295 9.0 15.0 0.00 0.00 0.00 68 1017.2
20150904202300 68 299 10.0 14.0 0.00 0.00 0.00 68 1017.2
20150904201800 68 291 9.0 14.0 0.00 0.00 0.00 68 1017.2
20150904201259 68 296 9.0 13.0 0.00 0.00 0.00 69 1017.2
20150904200801 68 302 9.0 14.0 0.00 0.00 0.00 69 1017.2
20150904200259 68 302 8.0 14.0 0.00 0.00 0.00 69 1017.2
20150904195759 68 324 7.0 14.0 0.00 0.00 0.00 69 1017.2
20150904195300 68 320 9.0 13.0 0.00 0.00 0.00 68 1017.3
20150904194759 69 340 9.0 13.0 0.00 0.00 0.00 68 1017.3
20150904194259 69 312 10.0 12.0 0.00 0.00 0.00 67 1017.4
20150904193801 70 310 9.0 13.0 0.00 0.00 0.00 67 1017.4
20150904193259 70 312 7.0 13.0 0.00 0.00 0.00 67 1017.5
20150904192800 70 284 9.0 13.0 0.00 0.00 0.00 66 1017.4
20150904192302 70 331 8.0 12.0 0.00 0.00 0.00 65 1017.5
20150904191759 70 301 8.0 12.0 0.00 0.00 0.00 65 1017.5
20150904191259 70 341 8.0 14.0 0.00 0.00 0.00 65 1017.5
20150904190800 70 306 9.0 14.0 0.00 0.00 0.00 65 1017.5
20150904190259 70 305 9.0 14.0 0.00 0.00 0.00 65 1017.6
20150904185759 71 309 8.0 12.0 0.00 0.00 0.00 64 1017.6
20150904185300 71 330 7.0 12.0 0.00 0.00 0.00 64 1017.6
20150904184759 71 289 8.0 11.0 0.00 0.00 0.00 64 1017.6
20150904184259 71 282 7.0 11.0 0.00 0.00 0.00 64 1017.6
20150904183801 71 281 8.0 9.0 0.00 0.00 0.00 63 1017.6
20150904183259 71 296 8.0 8.0 0.00 0.00 0.00 64 1017.6
20150904182759 71 303 6.0 8.0 0.00 0.00 0.00 64 1017.7
20150904182300 71 315 5.0 9.0 0.00 0.00 0.00 64 1017.7
20150904181759 71 278 5.0 9.0 0.00 0.00 0.00 64 1017.7
20150904181259 71 280 6.0 9.0 0.00 0.00 0.00 65 1017.7
20150904180802 70 310 4.0 7.0 0.00 0.00 0.00 65 1017.7
20150904180259 70 280 6.0 8.0 0.00 0.00 0.00 65 1017.6
20150904175759 70 278 4.0 8.0 0.00 0.00 0.00 65 1017.6
20150904175300 69 282 5.0 8.0 0.00 0.00 0.00 66 1017.6
20150904174759 69 270 5.0 8.0 0.00 0.00 0.00 66 1017.6
20150904173801 69 282 6.0 7.0 0.00 0.00 0.00 67 1017.6
20150904173300 68 270 4.0 7.0 0.00 0.00 0.00 68 1017.6
20150904172759 68 322 4.0 7.0 0.00 0.00 0.00 68 1017.5
20150904172300 68 266 4.0 6.0 0.00 0.00 0.00 69 1017.5
20150904171759 67 302 2.0 5.0 0.00 0.00 0.00 70 1017.5
20150904171301 66 289 3.0 7.0 0.00 0.00 0.00 71 1017.5
20150904170800 66 302 4.0 7.0 0.00 0.00 0.00 72 1017.5
20150904170259 65 282 3.0 7.0 0.00 0.00 0.00 73 1017.6
20150904165759 64 299 4.0 7.0 0.00 0.00 0.00 74 1017.5
20150904164759 63 0 4.0 4.0 0.00 0.00 0.00 77 1017.5
20150904164259 62 0 0.0 0.0 0.00 0.00 0.00 80 1017.4
20150904163800 61 0 0.0 0.0 0.00 0.00 0.00 81 1017.3
20150904163259 60 0 0.0 0.0 0.00 0.00 0.00 83 1017.3
20150904162800 59 0 0.0 0.0 0.00 0.00 0.00 85 1017.3
20150904161759 58 0 0.0 0.0 0.00 0.00 0.00 88 1017.3
20150904161259 57 0 0.0 0.0 0.00 0.00 0.00 89 1017.3
20150904160801 56 0 0.0 0.0 0.00 0.00 0.00 89 1017.3
20150904160259 56 0 0.0 0.0 0.00 0.00 0.00 90 1017.4
20150904155759 55 0 0.0 0.0 0.00 0.00 0.00 91 1017.4
20150904155300 55 0 0.0 0.0 0.00 0.00 0.00 91 1017.4
20150904154759 55 0 0.0 0.0 0.00 0.00 0.00 92 1017.5
20150904154259 54 0 0.0 0.0 0.00 0.00 0.00 92 1017.4
20150904153800 54 0 0.0 0.0 0.00 0.00 0.00 92 1017.5
20150904153259 53 0 0.0 0.0 0.00 0.00 0.00 92 1017.5
20150904152759 53 0 0.0 0.0 0.00 0.00 0.00 93 1017.5
20150904152300 52 0 0.0 0.0 0.00 0.00 0.00 93 1017.6
20150904151759 52 0 0.0 0.0 0.00 0.00 0.00 93 1017.6
20150904151300 51 0 0.0 0.0 0.00 0.00 0.00 93 1017.6
20150904150800 51 0 0.0 0.0 0.00 0.00 0.00 93 1017.6
20150904150259 51 0 0.0 0.0 0.00 0.00 0.00 93 1017.8
20150904145759 51 0 0.0 0.0 0.00 0.00 0.00 93 1017.8
20150904145300 50 0 0.0 0.0 0.00 0.00 0.00 93 1017.8
20150904144759 50 0 0.0 0.0 0.00 0.00 0.00 93 1017.7
20150904144259 50 0 0.0 0.0 0.00 0.00 0.00 93 1017.7
20150904143800 50 0 0.0 0.0 0.00 0.00 0.00 93 1017.6
20150904143259 50 0 0.0 0.0 0.00 0.00 0.00 93 1017.7
20150904142759 50 0 0.0 0.0 0.00 0.00 0.00 93 1017.6
20150904142300 50 0 0.0 0.0 0.00 0.00 0.00 93 1017.6
20150904141759 50 0 0.0 0.0 0.00 0.00 0.00 93 1017.5
20150904141259 50 0 0.0 0.0 0.00 0.00 0.00 93 1017.4
20150904140759 50 0 0.0 0.0 0.00 0.00 0.00 93 1017.4
20150904140259 50 0 0.0 0.0 0.00 0.06 0.00 93 1017.3
20150904135759 50 0 0.0 0.0 0.00 0.06 0.00 93 1017.3
20150904135300 50 0 0.0 0.0 0.00 0.06 0.00 93 1017.3
20150904134759 50 0 0.0 0.0 0.00 0.06 0.00 92 1017.3
20150904134259 50 0 0.0 0.0 0.00 0.06 0.00 93 1017.2
20150904133800 50 0 0.0 0.0 0.00 0.06 0.00 92 1017.2
20150904133259 50 0 0.0 0.0 0.00 0.06 0.00 92 1017.2
20150904132759 50 0 0.0 0.0 0.00 0.06 0.00 92 1017.2
20150904131759 50 0 0.0 0.0 0.00 0.06 0.00 92 1017.2
20150904131259 50 0 0.0 0.0 0.00 0.06 0.00 92 1017.1
20150904130759 50 0 0.0 0.0 0.00 0.06 0.00 92 1017.2
20150904130259 51 0 0.0 0.0 0.00 0.06 0.00 92 1017.2
20150904125759 51 0 0.0 0.0 0.00 0.06 0.00 92 1017.1
20150904125300 51 0 0.0 0.0 0.00 0.06 0.00 92 1017.0
20150904124759 51 0 0.0 0.0 0.00 0.06 0.00 92 1017.0
20150904124259 51 0 0.0 0.0 0.00 0.06 0.00 92 1016.9
20150904123259 51 0 0.0 0.0 0.00 0.06 0.00 92 1016.9
20150904122759 51 0 0.0 6.0 0.00 0.06 0.00 92 1016.8
20150904122300 51 0 0.0 6.0 0.00 0.06 0.00 92 1016.8
20150904121759 51 120 0.0 6.0 0.00 0.06 0.00 92 1016.7
20150904121259 51 96 1.0 4.0 0.00 0.06 0.00 92 1016.8
20150904120759 51 0 0.0 1.0 0.00 0.06 0.00 92 1016.7
20150904120259 51 79 0.0 7.0 0.00 0.06 0.00 92 1016.8
20150904115759 51 137 2.0 7.0 0.00 0.06 0.00 92 1016.8
20150904115259 51 53 0.0 7.0 0.00 0.06 0.00 92 1016.7
20150904114759 51 0 0.0 5.0 0.00 0.06 0.00 92 1016.8
20150904114259 51 77 0.0 5.0 0.00 0.06 0.00 92 1016.8
20150904113800 51 98 0.0 5.0 0.00 0.06 0.00 92 1016.9
20150904113259 51 0 1.0 1.0 0.00 0.06 0.00 92 1016.9
20150904112759 51 0 0.0 4.0 0.00 0.06 0.00 92 1016.8
20150904112259 51 0 0.0 4.0 0.00 0.06 0.00 91 1016.8
20150904111759 51 95 0.0 4.0 0.00 0.06 0.00 91 1016.7
20150904111259 51 0 0.0 0.0 0.00 0.06 0.00 91 1016.7
20150904110800 51 84 0.0 7.0 0.00 0.06 0.00 91 1016.7
20150904110259 52 88 0.0 7.0 0.00 0.06 0.00 91 1016.6
20150904105759 52 84 2.0 7.0 0.00 0.06 0.00 91 1016.7
20150904105259 52 0 2.0 2.0 0.00 0.06 0.00 91 1016.7
20150904104759 52 0 0.0 6.0 0.00 0.06 0.00 91 1016.6
20150904104259 52 85 0.0 6.0 0.00 0.06 0.00 91 1016.6
20150904103759 52 75 0.0 6.0 0.00 0.06 0.00 91 1016.7
20150904103259 52 126 1.0 5.0 0.00 0.06 0.00 91 1016.7
20150904102759 52 0 1.0 5.0 0.00 0.06 0.00 91 1016.7
20150904102300 52 0 0.0 5.0 0.00 0.06 0.00 91 1016.7
20150904101759 52 56 0.0 5.0 0.00 0.06 0.00 91 1016.8
20150904101259 52 106 1.0 6.0 0.00 0.06 0.00 91 1016.8
20150904100759 52 98 0.0 6.0 0.00 0.06 0.00 91 1016.8
20150904100259 52 112 0.0 6.0 0.00 0.06 0.00 91 1016.9
20150904095759 52 56 0.0 5.0 0.00 0.06 0.00 91 1016.9
20150904095259 52 70 0.0 5.0 0.00 0.06 0.00 91 1016.9
20150904094759 52 71 0.0 5.0 0.00 0.06 0.00 91 1016.8
20150904094259 52 92 0.0 6.0 0.00 0.06 0.00 91 1016.9
20150904093259 52 82 0.0 6.0 0.00 0.06 0.00 91 1016.9
20150904092759 52 116 2.0 6.0 0.00 0.06 0.00 91 1016.9
20150904092259 52 72 1.0 5.0 0.00 0.06 0.00 91 1016.9
20150904091758 52 68 2.0 5.0 0.00 0.06 0.00 91 1017.0
20150904091259 52 78 2.0 4.0 0.00 0.06 0.00 91 1017.0
20150904090759 52 0 1.0 1.0 0.00 0.06 0.00 91 1017.0
20150904090259 52 0 0.0 0.0 0.00 0.06 0.00 90 1017.1
20150904085259 52 0 0.0 0.0 0.00 0.06 0.00 90 1017.1
20150904084759 52 0 0.0 0.0 0.00 0.06 0.00 90 1017.2
20150904084305 52 0 0.0 0.0 0.00 0.06 0.00 90 1017.2
20150904083258 52 0 0.0 0.0 0.00 0.06 0.00 90 1017.2
20150904082758 52 0 0.0 0.0 0.00 0.06 0.00 90 1017.2
20150904082259 53 0 0.0 0.0 0.00 0.06 0.00 90 1017.1
20150904081759 53 0 0.0 0.0 0.00 0.06 0.00 90 1017.1
20150904081258 53 0 0.0 0.0 0.00 0.06 0.00 90 1017.1
20150904080800 53 0 0.0 0.0 0.00 0.06 0.00 90 1017.1
20150904080259 53 0 0.0 0.0 0.00 0.06 0.00 90 1017.0
20150904075758 53 0 0.0 0.0 0.00 0.06 0.00 90 1017.1
20150904075259 53 0 0.0 6.0 0.00 0.06 0.00 90 1017.1
20150904074758 53 67 0.0 6.0 0.00 0.06 0.00 90 1017.1
20150904074258 53 86 1.0 6.0 0.00 0.06 0.00 89 1017.1
20150904073759 53 25 2.0 5.0 0.00 0.06 0.00 89 1017.1
20150904073259 53 0 0.0 0.0 0.00 0.06 0.00 89 1017.1
20150904072759 53 0 0.0 0.0 0.00 0.06 0.00 89 1017.1
20150904072259 53 95 0.0 5.0 0.00 0.06 0.00 89 1017.2
20150904071758 53 82 0.0 5.0 0.00 0.06 0.00 89 1017.2
20150904071258 53 112 0.0 5.0 0.00 0.06 0.00 89 1017.3
20150904070759 54 113 1.0 5.0 0.00 0.06 0.00 89 1017.3
20150904070258 54 0 1.0 6.0 0.00 0.06 0.00 89 1017.3
20150904065758 54 0 0.0 6.0 0.00 0.06 0.06 89 1017.4
20150904065259 54 130 0.0 6.0 0.00 0.06 0.06 88 1017.4
20150904064759 54 79 3.0 6.0 0.00 0.06 0.06 88 1017.5
20150904063759 54 92 4.0 6.0 0.00 0.06 0.06 88 1017.5
20150904062758 54 82 0.0 7.0 0.00 0.06 0.06 88 1017.4
20150904062259 54 0 0.0 7.0 0.00 0.06 0.06 88 1017.4
20150904061758 54 109 0.0 7.0 0.00 0.06 0.06 88 1017.4
20150904061259 54 123 0.0 5.0 0.00 0.06 0.06 88 1017.4
20150904060813 54 0 1.0 1.0 0.00 0.06 0.06 88 1017.5
20150904060258 54 0 0.0 0.0 0.00 0.06 0.06 88 1017.5
20150904055759 54 88 0.0 6.0 0.00 0.06 0.06 88 1017.5
20150904054759 54 109 0.0 6.0 0.00 0.06 0.06 87 1017.6
20150904054258 55 70 3.0 5.0 0.00 0.06 0.06 87 1017.6
20150904053801 55 96 2.0 5.0 0.00 0.06 0.06 87 1017.6
20150904053259 55 39 1.0 5.0 0.00 0.06 0.06 87 1017.7
20150904052758 55 99 0.0 5.0 0.00 0.06 0.06 87 1017.6
20150904052259 55 0 0.0 0.0 0.00 0.06 0.06 87 1017.7
20150904051759 55 0 0.0 0.0 0.00 0.06 0.06 87 1017.7
20150904051258 55 0 0.0 0.0 0.00 0.06 0.06 87 1017.8
20150904050759 55 0 0.0 0.0 0.00 0.06 0.06 86 1017.8
20150904050258 55 0 0.0 0.0 0.00 0.06 0.06 86 1017.9
20150904045759 55 0 0.0 0.0 0.00 0.06 0.06 86 1017.9
20150904045259 55 0 0.0 0.0 0.00 0.06 0.06 86 1017.9
20150904044758 56 0 0.0 0.0 0.00 0.06 0.06 85 1017.9
20150904044259 56 0 0.0 0.0 0.00 0.06 0.06 85 1018.0
20150904043759 56 93 0.0 5.0 0.00 0.06 0.06 85 1017.9
20150904043258 56 89 0.0 5.0 0.00 0.06 0.06 85 1017.9
20150904042759 56 98 3.0 5.0 0.00 0.06 0.06 84 1017.9
20150904042259 56 0 0.0 6.0 0.00 0.06 0.06 84 1017.9
20150904041758 56 0 0.0 6.0 0.00 0.06 0.06 84 1017.9
20150904041258 56 88 0.0 6.0 0.00 0.06 0.06 84 1017.9
20150904040759 57 0 1.0 1.0 0.00 0.06 0.06 83 1017.9
20150904040258 57 0 0.0 0.0 0.00 0.06 0.06 83 1018.0
20150904035758 57 0 0.0 0.0 0.00 0.06 0.06 82 1017.9
20150904035259 57 47 0.0 5.0 0.00 0.06 0.06 82 1018.0
20150904034758 58 78 0.0 5.0 0.00 0.06 0.06 81 1018.0
20150904034258 58 81 4.0 5.0 0.00 0.06 0.06 81 1018.0
20150904033759 58 0 0.0 0.0 0.00 0.06 0.06 81 1018.0
20150904033258 59 0 0.0 0.0 0.00 0.06 0.06 80 1018.1
20150904032759 59 0 0.0 0.0 0.00 0.06 0.06 79 1018.1
20150904032259 59 0 0.0 0.0 0.00 0.06 0.06 78 1017.9
20150904031759 60 0 0.0 0.0 0.00 0.06 0.06 77 1017.6
20150904031258 60 0 0.0 0.0 0.00 0.06 0.06 77 1017.5
20150904030759 61 0 0.0 0.0 0.00 0.06 0.06 76 1017.5
20150904030300 61 0 0.0 0.0 0.00 0.06 0.06 75 1017.4
20150904025758 62 0 0.0 0.0 0.00 0.06 0.06 75 1017.3
20150904025259 62 0 0.0 0.0 0.00 0.06 0.06 74 1017.4
20150904024758 63 0 0.0 0.0 0.00 0.06 0.06 74 1017.4
20150904024258 63 0 0.0 0.0 0.00 0.06 0.06 74 1017.4
20150904023759 64 0 0.0 0.0 0.00 0.06 0.06 74 1017.4
20150904023258 64 0 0.0 0.0 0.00 0.06 0.06 73 1017.4
20150904022758 64 0 0.0 0.0 0.00 0.06 0.06 73 1017.4
20150904022259 64 285 0.0 5.0 0.00 0.06 0.06 72 1017.4
20150904021758 64 287 2.0 5.0 0.00 0.06 0.06 72 1017.5
20150904021258 64 278 2.0 5.0 0.00 0.06 0.06 72 1017.6
20150904020759 65 281 3.0 6.0 0.00 0.06 0.06 71 1017.8
20150904020258 65 270 2.0 6.0 0.00 0.06 0.06 71 1017.7
20150904015758 65 287 4.0 6.0 0.00 0.06 0.06 71 1017.8
20150904015259 65 277 2.0 5.0 0.00 0.06 0.06 71 1017.8
20150904014758 65 294 0.0 7.0 0.00 0.06 0.06 70 1017.8
20150904014258 65 298 3.0 7.0 0.00 0.06 0.06 70 1017.8
20150904013759 65 295 3.0 7.0 0.00 0.06 0.06 69 1017.8
20150904013258 65 280 4.0 6.0 0.00 0.06 0.06 70 1017.9
20150904012758 65 289 2.0 7.0 0.00 0.06 0.06 71 1017.9
20150904012259 66 287 4.0 7.0 0.00 0.06 0.06 71 1018.0
20150904011758 66 292 2.0 7.0 0.00 0.06 0.06 72 1018.1
20150904011258 66 275 5.0 6.0 0.00 0.06 0.06 72 1018.1
20150904010759 66 288 4.0 7.0 0.00 0.06 0.06 72 1018.2
20150904010258 66 288 3.0 7.0 0.00 0.06 0.06 72 1018.2
20150904005758 66 278 5.0 7.0 0.00 0.06 0.06 71 1018.3
20150904005259 66 282 4.0 7.0 0.00 0.06 0.06 72 1018.4
20150904004758 66 280 4.0 7.0 0.00 0.06 0.06 72 1018.5
20150904004258 66 302 4.0 7.0 0.00 0.06 0.06 72 1018.5
20150904003758 66 287 4.0 7.0 0.00 0.06 0.06 72 1018.5
20150904003258 66 268 3.0 7.0 0.00 0.06 0.06 72 1018.6
20150904002758 67 275 2.0 7.0 0.00 0.06 0.06 73 1018.7
20150904002259 67 273 4.0 7.0 0.00 0.06 0.06 72 1018.7
20150904001758 67 287 5.0 7.0 0.00 0.06 0.06 72 1018.7
20150904001258 67 287 6.0 7.0 0.00 0.06 0.06 72 1018.6
20150904000759 67 280 6.0 7.0 0.00 0.06 0.06 72 1018.6
20150904000258 67 287 5.0 7.0 0.00 0.06 0.06 72 1018.7
20150903235759 67 277 5.0 7.0 0.00 0.06 0.06 73 1018.8
20150903235259 66 281 5.0 6.0 0.00 0.06 0.06 74 1018.8
20150903234758 66 298 5.0 7.0 0.00 0.06 0.06 75 1018.8
20150903234258 66 281 5.0 7.0 0.00 0.06 0.06 74 1018.8
20150903233758 66 266 6.0 7.0 0.00 0.06 0.06 74 1018.9
20150903233258 66 263 5.0 6.0 0.00 0.06 0.06 74 1018.8
20150903232758 67 278 4.0 6.0 0.00 0.06 0.06 74 1018.8
20150903232259 67 284 4.0 6.0 0.00 0.06 0.06 73 1018.9
20150903231758 67 257 5.0 6.0 0.00 0.06 0.06 72 1018.9
20150903231258 67 266 3.0 6.0 0.00 0.06 0.06 73 1019.0
20150903230758 67 228 3.0 6.0 0.00 0.06 0.06 73 1019.0